Simultaneous Nadir Overpasses (SNOs) Predictions

Prediction of SNOs between GOES-15 and LANDSAT-8 Satellite Orbit:

Table of predicted SNOs for the next 14.0 days since TLE Epoch: 8/3/2024
Index Date Time (GOES-15) GOES-15 Lat,Lon LANDSAT-8 Lat,Lon Distance(km) Time Diff (sec)
1 08/04/2024 18:05:18 0.09, 61.55 0.01, 61.31 27.50 80
2 08/06/2024 17:55:45 0.09, 61.61 0.64, 64.28 302.89 80
3 08/07/2024 06:14:21 -0.13, 61.51 0.39, 59.11 272.66 80
4 08/09/2024 06:04:48 -0.13, 61.58 -0.27, 62.08 57.77 80
5 08/11/2024 05:52:33 -0.12, 61.65 -0.83, 65.06 387.91 80
6 08/11/2024 18:11:17 0.16, 61.79 -0.25, 59.87 218.11 80
7 08/13/2024 18:01:42 0.16, 61.87 0.35, 62.85 111.37 80
8 08/14/2024 06:20:18 -0.19, 61.77 0.66, 57.68 464.55 80
9 08/15/2024 17:49:27 0.15, 61.95 0.97, 65.83 440.29 80
10 08/16/2024 06:08:02 -0.18, 61.86 0.10, 60.67 135.76 80
